Union Aéronautique de la Côte d'Azur

Union Aéronautique de la Côte d'Azur
UACA
Approuvé A.T.O. EASA – N°FR.ATO.0108

UNION des aéroclubs
Cannes “Ailes d’Azur”, Nice “Côte d’Azur”, Grasse “St Exupery”, ACCA “Francis Séverac”

Un cache-pitot se trouve à bord de chaque avion. Pensez à le mettre en place à la fin de chaque vol !

Avant de quitter l'avion, vérifiez que vous n'emportez pas la checklist

Un vol ne s'entreprend qu'avec un pare-brise parfaitement propre, il en va de votre sécurité, et de celle des autres

Après chaque vol, merci de mettre en place les pares-soleil!


Météo à Cannes:
METAR
LFMD 241000Z AUTO 08005KT 350V140 9999 BKN026 BKN036 22/14 Q1019 NOSIG =

TAF
LFMD 240800Z 2409/2509 VRB02KT 9999 BKN015 BECMG 2409/2411 16010KT SCT015 BKN030 BECMG 2417/2419 VRB04KT PROB40 TEMPO 2500/2509 3000 BR BKN008 =

SR / SS: 04:31 / 18:29 UTC (LFMD 2018-04-24)